Weather observations for the past three days for
Claxton Evans County Airport
| Date | Time (edt) | Wind (kph) | Vis. (km) | Weather | Sky Cond. | Temperature (ºC) | Relative Humidity | Wind Chill (°C) | Heat Index (°C) | Pressure | Precipitation (cm) | ||||||
|---|---|---|---|---|---|---|---|---|---|---|---|---|---|---|---|---|---|
| Air | Dwpt | 6 hour | altimeter (cm) | sea level (mb) | 1 hr | 3 hr | 6 hr | ||||||||||
| Max. | Min. | ||||||||||||||||
| 02 | 18:15 | E 6 | 16.09 | Light Drizzle | FEW008 SCT024 OVC044 | 16 | 15 | 94% | 75.92 | 0.0 | |||||||
| 02 | 17:55 | N 4 | 16.09 | Light Drizzle | FEW008 FEW012 OVC022 | 16 | 16 | 100% | 75.9 | 0.0 | |||||||
| 02 | 17:35 | N 13 | 12.87 | Light Drizzle | SCT011 SCT020 BKN031 | 16 | 15 | 94% | 75.9 | 0.0 | |||||||
| 02 | 17:15 | N 15 | 12.87 | Light Drizzle | BKN029 | 16 | 15 | 94% | 75.87 | 0.0 | |||||||
| 02 | 16:55 | Vrbl 11 | 11.27 | Light Drizzle Fog/Mist | FEW019 SCT029 | 15 | 15 | 100% | 75.9 | 0.0 | |||||||
| 02 | 16:35 | NW 11 G 26 | 4.83 | Light Drizzle Fog/Mist | BKN019 BKN032 BKN039 | 15 | 15 | 100% | 75.9 | 0.0 | |||||||
| 02 | 16:15 | N 11 | 8.05 | Light Drizzle Fog/Mist | SCT008 SCT019 SCT039 | 16 | 16 | 100% | 75.87 | 0.0 | |||||||
| 02 | 15:55 | N 13 | 9.66 | Fog/Mist | FEW008 SCT013 BKN020 | 16 | 15 | 94% | 75.87 | 0.0 | |||||||
| 02 | 15:35 | N 11 | 8.05 | Light Drizzle Fog/Mist | FEW010 BKN020 OVC027 | 16 | 15 | 94% | 75.84 | 0.0 | |||||||
| 02 | 15:15 | Vrbl 7 | 16.09 | Overcast | FEW009 BKN020 OVC027 | 16 | 16 | 100% | 75.87 | 0.0 | |||||||
| 02 | 14:55 | Vrbl 9 | 16.09 | Light Drizzle | FEW009 OVC017 | 16 | 16 | 100% | 75.84 | 0.0 | 0.03 | ||||||
| 02 | 14:35 | Vrbl 9 | 16.09 | Light Rain | SCT011 OVC020 | 16 | 16 | 100% | 75.84 | 0.0 | |||||||
| 02 | 14:15 | N 6 | 16.09 | Overcast | FEW010 OVC018 | 16 | 15 | 94% | 75.87 | 0.0 | |||||||
| 02 | 13:55 | N 7 | 14.48 | Light Drizzle | SCT006 BKN010 OVC016 | 16 | 15 | 16.3 | 14.8 | 94% | 75.87 | 0.0 | 0.13 | ||||
| 02 | 13:35 | Vrbl 7 | 9.66 | Light Rain Fog/Mist | BKN006 OVC014 | 16 | 16 | 100% | 75.84 | 0.0 | |||||||
| 02 | 13:15 | N 11 | 4.83 | Light Rain Fog/Mist | SCT009 OVC014 | 16 | 15 | 94% | 75.82 | 0.0 | |||||||
| 02 | 12:55 | N 15 | 12.87 | Light Drizzle | BKN010 BKN013 OVC020 | 16 | 15 | 94% | 75.84 | 0.0 | |||||||
| 02 | 12:35 | N 13 | 16.09 | Light Drizzle | BKN008 BKN013 BKN020 | 16 | 15 | 94% | 75.84 | 0.0 | |||||||
| 02 | 12:15 | N 15 | 16.09 | Light Drizzle | BKN006 OVC013 | 16 | 16 | 100% | 75.84 | 0.0 | |||||||
| 02 | 11:55 | N 13 | 8.05 | Light Rain Fog/Mist | BKN006 OVC011 | 16 | 15 | 94% | 75.9 | 0.0 | 0.13 | ||||||
| 02 | 11:35 | Vrbl 9 | 6.44 | Light Rain Fog/Mist | BKN006 OVC011 | 15 | 15 | 100% | 75.9 | 0.0 | |||||||
| 02 | 11:15 | NE 11 | 12.87 | Light Rain | BKN006 OVC011 | 15 | 15 | 100% | 75.84 | 0.0 | |||||||
| 02 | 10:55 | N 9 | 8.05 | Light Rain Fog/Mist | BKN006 OVC011 | 15 | 15 | 100% | 75.87 | 0.0 | 0.13 | ||||||
| 02 | 10:35 | Vrbl 7 | 8.05 | Light Rain Fog/Mist | BKN006 OVC013 | 15 | 15 | 100% | 75.9 | 0.0 | |||||||
| 02 | 10:15 | N 15 | 9.66 | Light Rain Fog/Mist | OVC006 | 15 | 15 | 100% | 75.87 | 0.0 | |||||||
| 02 | 09:55 | N 9 | 4.83 | Rain Fog/Mist | BKN006 BKN011 OVC075 | 15 | 15 | 100% | 75.84 | 0.0 | 0.51 | ||||||
| 02 | 09:35 | Vrbl 6 | 4.83 | Light Rain Fog/Mist | SCT006 BKN015 BKN031 | 15 | 15 | 100% | 75.9 | 0.0 | |||||||
| 02 | 09:15 | NW 11 | 1.61 | Heavy Rain Fog/Mist | OVC004 | 15 | 15 | 100% | 75.95 | 0.0 | |||||||
| 02 | 08:55 | Vrbl 7 | 4.02 | Light Rain Fog/Mist | OVC004 | 15 | 15 | 100% | 75.92 | 0.0 | 0.23 | ||||||
| 02 | 08:35 | Vrbl 6 | 6.44 | Light Rain Fog/Mist | BKN004 OVC013 | 15 | 15 | 100% | 75.84 | 0.0 | |||||||
| 02 | 08:15 | Vrbl 6 | 4.02 | Light Rain Fog/Mist | FEW004 OVC013 | 15 | 15 | 100% | 75.84 | 0.0 | |||||||
| 02 | 07:55 | N 6 | 2.82 | Rain Fog/Mist | SCT004 BKN010 OVC016 | 15 | 15 | 17.9 | 15.1 | 100% | 75.84 | 0.0 | 0.56 | ||||
| 02 | 07:35 | W 11 | 2.41 | Rain Fog/Mist | OVC006 | 15 | 15 | 100% | 75.9 | 0.0 | |||||||
| 02 | 07:15 | NW 9 | 3.22 | Light Rain Fog/Mist | OVC004 | 16 | 16 | 100% | 75.82 | 0.0 | |||||||
| 02 | 06:55 | NW 4 | 2.01 | Rain Fog/Mist | OVC004 | 16 | 16 | 100% | 75.79 | 0.0 | 0.48 | ||||||
| 02 | 06:35 | Vrbl 2 | 1.61 | Rain Fog/Mist | OVC004 | 16 | 16 | 100% | 75.79 | 0.0 | |||||||
| 02 | 06:15 | Vrbl 7 | 8.05 | Light Rain Fog/Mist | OVC004 | 16 | 16 | 100% | 75.77 | 0.0 | |||||||
| 02 | 05:55 | Vrbl 4 | 9.66 | Light Rain Fog/Mist | BKN004 BKN016 OVC075 | 16 | 16 | 100% | 75.74 | 0.0 | 0.15 | ||||||
| 02 | 05:35 | Vrbl 9 | 9.66 | Light Drizzle Fog/Mist | SCT037 BKN060 OVC090 | 16 | 16 | 100% | 75.77 | 0.0 | |||||||
| 02 | 05:15 | NE 7 | 3.22 | Rain Fog/Mist | BKN003 BKN050 OVC065 | 16 | 16 | 100% | 75.79 | 0.0 | |||||||
| 02 | 04:55 | NE 7 | 2.01 | Light Rain Fog/Mist | OVC005 | 16 | 16 | 100% | 75.82 | 0.0 | 0.46 | ||||||
| 02 | 04:35 | Vrbl 7 | 3.22 | Light Rain Fog/Mist | BKN003 BKN031 BKN075 | 16 | 16 | 100% | 75.82 | 0.0 | |||||||
| 02 | 04:15 | S 9 | 3.22 | Rain Fog/Mist | SCT003 BKN050 OVC075 | 16 | 16 | 100% | 75.92 | 0.0 | |||||||
| 02 | 03:55 | N 6 | 4.02 | Rain Fog/Mist | SCT060 SCT075 SCT100 | 16 | 16 | 100% | 75.87 | 0.0 | 0.3 | ||||||
| 02 | 03:15 | NW 15 | 4.83 | Light Rain Fog/Mist | SCT029 BKN050 BKN065 | 16 | 16 | 100% | 75.92 | 0.0 | |||||||
| 02 | 02:55 | NW 13 | 2.01 | Rain Fog/Mist | SCT004 BKN030 OVC090 | 17 | 17 | 100% | 75.9 | 0.0 | 0.38 | ||||||
| 02 | 02:35 | SW 9 | 6.44 | Light Rain Fog/Mist | SCT034 SCT048 BKN070 | 17 | 17 | 100% | 75.97 | 0.0 | |||||||
| 02 | 02:15 | N 11 | 3.22 | Rain Fog/Mist | SCT004 BKN034 OVC080 | 17 | 17 | 100% | 75.9 | 0.0 | |||||||
| 02 | 01:55 | N 9 | 4.83 | Light Rain Fog/Mist | SCT039 SCT055 BKN080 | 18 | 18 | 22 | 17.4 | 100% | 75.92 | 0.0 | 0.2 | ||||
| 02 | 01:35 | NW 6 | 3.22 | Light Rain Fog/Mist | BKN005 BKN021 OVC040 | 18 | 18 | 100% | 75.95 | 0.0 | |||||||
| 02 | 01:15 | Vrbl 7 | 4.02 | Light Rain Fog/Mist | BKN005 BKN075 OVC095 | 18 | 18 | 100% | 75.97 | 0.0 | |||||||
| 02 | 00:55 | W 7 | 3.22 | Light Rain Fog/Mist | BKN003 BKN017 BKN095 | 18 | 18 | 100% | 75.95 | 0.0 | 0.1 | ||||||
| 02 | 00:35 | Vrbl 4 | 4.02 | Light Rain Fog/Mist | SCT004 SCT011 BKN060 | 18 | 18 | 100% | 75.95 | 0.0 | |||||||
| 02 | 00:15 | W 7 | 11.27 | Light Rain Fog/Mist | SCT060 BKN075 OVC090 | 19 | 19 | 100% | 75.92 | 0.0 | |||||||
| 01 | 23:55 | NW 6 | 12.87 | Light Rain | SCT060 BKN080 OVC110 | 19 | 18 | 94% | 75.9 | 0.0 | 0.03 | ||||||
| 01 | 23:35 | N 6 | 12.87 | Mostly Cloudy | SCT080 BKN100 BKN120 | 19 | 19 | 100% | 75.87 | 0.0 | |||||||
| 01 | 23:15 | N 7 | 11.27 | Light Rain Fog/Mist | SCT075 SCT095 | 19 | 19 | 100% | 75.9 | 0.0 | |||||||
| 01 | 22:55 | N 6 | 14.48 | Light Rain | SCT075 BKN095 BKN120 | 19 | 18 | 94% | 75.92 | 0.0 | |||||||
| 01 | 22:35 | N 6 | 12.87 | Light Rain | SCT060 SCT070 BKN110 | 19 | 18 | 94% | 75.92 | 0.0 | |||||||
| 01 | 22:15 | N 6 | 16.09 | Light Rain | BKN070 BKN085 BKN110 | 18 | 18 | 100% | 75.9 | 0.0 | |||||||
| 01 | 21:55 | Calm | 16.09 | Partly Cloudy | FEW055 SCT095 SCT120 | 18 | 17 | 94% | 75.92 | 0.0 | |||||||
| 01 | 21:35 | Calm | 16.09 | Overcast | SCT030 BKN075 OVC110 | 18 | 17 | 94% | 75.92 | 0.0 | |||||||
| 01 | 21:15 | NW 4 | 16.09 | Overcast | SCT028 SCT055 OVC110 | 18 | 16 | 88% | 75.95 | 0.0 | |||||||
| 01 | 20:55 | W 7 | 16.09 | Light Rain | SCT030 BKN075 OVC120 | 20 | 15 | 73% | 75.95 | 0.0 | |||||||
| 01 | 20:35 | W 7 | 16.09 | Overcast | SCT032 BKN075 OVC120 | 21 | 12 | 57% | 75.97 | 0.0 | |||||||
| 01 | 20:15 | W 9 | 16.09 | Mostly Cloudy | BKN120 | 21 | 11 | 53% | 75.9 | 0.0 | |||||||
| 01 | 19:55 | Vrbl 6 | 16.09 | Fair | CLR | 22 | 11 | 24.8 | 21.9 | 50% | 75.84 | 0.0 | |||||
| 01 | 19:35 | W 9 | 16.09 | Fair | CLR | 22 | 11 | 50% | 75.84 | 0.0 | |||||||
| 01 | 19:15 | W 9 | 16.09 | Fair | CLR | 22 | 12 | 53% | 75.84 | 0.0 | |||||||
| 01 | 18:55 | Vrbl 7 | 16.09 | Fair | CLR | 23 | 12 | 50% | 75.82 | 0.0 | |||||||
| 01 | 18:35 | W 9 | 16.09 | A Few Clouds | FEW110 | 23 | 12 | 50% | 75.79 | 0.0 | |||||||
| 01 | 18:15 | W 9 | 16.09 | Light Rain | FEW070 SCT085 BKN110 | 23 | 12 | 50% | 75.82 | 0.0 | |||||||
| 01 | 17:55 | W 13 | 16.09 | Overcast | BKN070 OVC085 | 23 | 11 | 47% | 75.87 | 0.0 | |||||||
| 01 | 17:35 | W 15 | 16.09 | Overcast | OVC070 | 23 | 11 | 47% | 75.9 | 0.0 | |||||||
| 01 | 17:15 | W 9 | 16.09 | Overcast | OVC080 | 24 | 11 | 44% | 25 | 75.87 | 0.0 | ||||||
| 01 | 16:55 | Vrbl 9 | 16.09 | Overcast | OVC080 | 24 | 11 | 44% | 25 | 75.84 | 0.0 | ||||||
| 01 | 16:35 | W 13 | 16.09 | Overcast | OVC080 | 24 | 11 | 44% | 25 | 75.84 | 0.0 | ||||||
| 01 | 16:15 | Vrbl 7 | 16.09 | Overcast | OVC080 | 24 | 11 | 44% | 25 | 75.84 | 0.0 | ||||||
| 01 | 15:55 | Vrbl 4 | 16.09 | Overcast | OVC080 | 24 | 11 | 44% | 25 | 75.84 | 0.0 | ||||||
| 01 | 15:35 | Vrbl 9 | 16.09 | Mostly Cloudy | FEW060 BKN090 | 24 | 11 | 44% | 25 | 75.87 | 0.0 | ||||||
| 01 | 15:15 | Vrbl 6 | 16.09 | Mostly Cloudy | SCT070 SCT080 BKN090 | 24 | 11 | 44% | 25 | 75.9 | 0.0 | ||||||
| 01 | 14:55 | Vrbl 6 | 16.09 | Light Rain | FEW060 SCT080 BKN090 | 24 | 12 | 47% | 25 | 75.92 | 0.0 | ||||||
| 01 | 14:35 | Vrbl 7 | 16.09 | Partly Cloudy | SCT090 | 24 | 12 | 47% | 25 | 75.92 | 0.0 | ||||||
| 01 | 14:15 | W 13 | 16.09 | Partly Cloudy | FEW060 SCT070 SCT100 | 25 | 12 | 44% | 26 | 75.92 | 0.0 | ||||||
| 01 | 13:55 | W 13 | 16.09 | Mostly Cloudy | BKN070 | 25 | 11 | 26.3 | 17.6 | 42% | 26 | 75.92 | 0.0 | ||||
| 01 | 13:35 | Vrbl 9 | 16.09 | Mostly Cloudy | FEW065 BKN080 BKN090 | 25 | 11 | 42% | 26 | 75.92 | 0.0 | ||||||
| 01 | 13:15 | Vrbl 4 | 16.09 | Mostly Cloudy | FEW080 BKN100 | 25 | 12 | 44% | 26 | 75.92 | 0.0 | ||||||
| 01 | 12:55 | Vrbl 9 | 16.09 | Mostly Cloudy | BKN080 BKN100 | 25 | 13 | 47% | 26 | 75.92 | 0.0 | ||||||
| 01 | 12:35 | SW 13 | 16.09 | Mostly Cloudy | BKN080 | 26 | 13 | 45% | 26 | 75.92 | 0.0 | ||||||
| 01 | 12:15 | SW 11 | 16.09 | Partly Cloudy | SCT090 | 25 | 14 | 51% | 26 | 75.95 | 0.0 | ||||||
| 01 | 11:55 | Vrbl 11 | 16.09 | Partly Cloudy | SCT090 SCT110 | 24 | 15 | 57% | 25 | 75.97 | 0.0 | ||||||
| 01 | 11:35 | Vrbl 6 | 16.09 | Mostly Cloudy | BKN090 | 24 | 16 | 61% | 25 | 75.97 | 0.0 | ||||||
| 01 | 11:15 | SW 6 | 16.09 | Overcast | OVC090 | 22 | 17 | 73% | 75.97 | 0.0 | |||||||
| 01 | 10:55 | W 7 | 16.09 | Overcast | OVC090 | 21 | 16 | 73% | 76 | 0.0 | |||||||
| 01 | 10:35 | Vrbl 6 | 16.09 | Overcast | OVC090 | 21 | 16 | 73% | 75.97 | 0.0 | |||||||
| 01 | 10:15 | Calm | 16.09 | Mostly Cloudy | BKN100 | 20 | 16 | 78% | 75.95 | 0.0 | |||||||
| 01 | 09:55 | W 4 | 16.09 | Mostly Cloudy | BKN100 | 20 | 15 | 73% | 75.97 | 0.0 | |||||||
| 01 | 09:35 | W 6 | 16.09 | Overcast | FEW012 OVC100 | 20 | 15 | 73% | 75.97 | 0.0 | |||||||
| 01 | 09:15 | Vrbl 2 | 16.09 | Overcast | SCT012 OVC110 | 19 | 15 | 78% | 75.97 | 0.0 | |||||||
| 01 | 08:55 | Vrbl 2 | 16.09 | Overcast | FEW011 OVC110 | 19 | 14 | 73% | 75.95 | 0.0 | |||||||
| 01 | 08:35 | N 4 | 16.09 | Overcast | FEW011 OVC120 | 19 | 14 | 73% | 75.92 | 0.0 | |||||||
| 01 | 08:15 | Vrbl 6 | 16.09 | Overcast | SCT009 OVC120 | 18 | 14 | 78% | 75.95 | 0.0 | |||||||
| 01 | 07:55 | Vrbl 6 | 16.09 | Mostly Cloudy | BKN009 BKN120 | 18 | 15 | 17.6 | 15.4 | 83% | 75.92 | 0.0 | |||||
| 01 | 07:35 | W 6 | 16.09 | A Few Clouds | FEW120 | 18 | 15 | 83% | 75.9 | 0.0 | |||||||
| 01 | 07:15 | W 4 | 16.09 | Fair | CLR | 17 | 15 | 88% | 75.87 | 0.0 | |||||||
| 01 | 06:55 | SW 6 | 16.09 | Fair | CLR | 17 | 15 | 88% | 75.9 | 0.0 | |||||||
| 01 | 06:35 | W 6 | 16.09 | Fair | CLR | 17 | 16 | 94% | 75.87 | 0.0 | |||||||
| 01 | 06:15 | Vrbl 2 | 16.09 | Fair | CLR | 17 | 16 | 94% | 75.84 | 0.0 | |||||||
| 01 | 05:55 | Calm | 16.09 | Fair | CLR | 17 | 15 | 88% | 75.84 | 0.0 | |||||||
| 01 | 05:35 | N 2 | 16.09 | Partly Cloudy | SCT050 | 17 | 16 | 94% | 75.84 | 0.0 | |||||||
| 01 | 05:15 | SW 2 | 16.09 | Mostly Cloudy | BKN050 | 17 | 16 | 94% | 75.84 | 0.0 | |||||||
| 01 | 04:55 | W 4 | 16.09 | A Few Clouds | FEW050 FEW120 | 17 | 15 | 88% | 75.84 | 0.0 | |||||||
| 01 | 04:35 | SW 4 | 16.09 | Partly Cloudy | FEW050 SCT120 | 17 | 16 | 94% | 75.82 | 0.0 | |||||||
| 01 | 04:15 | W 7 | 16.09 | A Few Clouds | FEW055 FEW120 | 17 | 15 | 88% | 75.84 | 0.0 | |||||||
| 01 | 03:55 | W 4 | 16.09 | Mostly Cloudy | BKN055 | 17 | 15 | 88% | 75.82 | 0.0 | |||||||
| 01 | 03:35 | W 4 | 16.09 | Mostly Cloudy | FEW043 BKN055 | 17 | 16 | 94% | 75.84 | 0.0 | |||||||
| 01 | 03:15 | W 6 | 16.09 | Fair | CLR | 16 | 15 | 94% | 75.82 | 0.0 | |||||||
| 01 | 02:55 | W 4 | 16.09 | A Few Clouds | FEW060 | 16 | 16 | 100% | 75.82 | 0.0 | |||||||
| 01 | 02:35 | Vrbl 2 | 16.09 | Partly Cloudy | SCT060 | 16 | 15 | 94% | 75.84 | 0.0 | |||||||
| 01 | 02:15 | W 4 | 16.09 | Mostly Cloudy | BKN060 | 17 | 16 | 94% | 75.84 | 0.0 | |||||||
| 01 | 01:55 | W 2 | 16.09 | Fair | CLR | 17 | 16 | 25.9 | 16.1 | 94% | 75.84 | 0.0 | |||||
| 01 | 01:35 | Calm | 16.09 | Fair | CLR | 17 | 15 | 88% | 75.84 | 0.0 | |||||||
| 01 | 00:55 | W 2 | 16.09 | A Few Clouds | FEW050 | 18 | 16 | 88% | 75.87 | 0.0 | |||||||
| 01 | 00:35 | Vrbl 2 | 16.09 | Mostly Cloudy | SCT050 BKN095 | 18 | 16 | 88% | 75.87 | 0.0 | |||||||
| 01 | 00:15 | E 6 | 16.09 | Mostly Cloudy | FEW050 BKN095 | 18 | 16 | 88% | 75.9 | 0.0 | |||||||
| 30 | 23:55 | W 4 | 16.09 | Partly Cloudy | SCT095 | 18 | 16 | 88% | 75.9 | 0.0 | |||||||
| 30 | 23:35 | NW 2 | 16.09 | Partly Cloudy | SCT095 | 19 | 16 | 83% | 75.87 | 0.0 | |||||||
| 30 | 23:15 | NW 2 | 16.09 | Mostly Cloudy | BKN095 | 19 | 16 | 83% | 75.87 | 0.0 | |||||||
| 30 | 22:55 | W 2 | 16.09 | Mostly Cloudy | BKN095 | 19 | 16 | 83% | 75.87 | 0.0 | |||||||
| 30 | 22:35 | W 2 | 16.09 | Mostly Cloudy | BKN095 | 20 | 16 | 78% | 75.87 | 0.0 | |||||||
| 30 | 21:55 | W 6 | 16.09 | Fair | CLR | 21 | 16 | 73% | 75.82 | 0.0 | |||||||
| 30 | 21:35 | W 6 | 16.09 | Mostly Cloudy | BKN090 | 21 | 16 | 73% | 75.79 | 0.0 | |||||||
| 30 | 21:15 | W 6 | 16.09 | Mostly Cloudy | BKN090 | 22 | 16 | 69% | 75.77 | 0.0 | |||||||
| 30 | 20:55 | NW 4 | 16.09 | A Few Clouds | FEW090 | 22 | 16 | 69% | 75.74 | 0.0 | |||||||
| 30 | 20:35 | NW 4 | 16.09 | Fair | CLR | 24 | 15 | 57% | 25 | 75.72 | 0.0 | ||||||
| 30 | 20:15 | NW 7 | 16.09 | Fair | CLR | 25 | 15 | 54% | 26 | 75.72 | 0.0 | ||||||
| 30 | 19:55 | NW 9 | 16.09 | Fair | CLR | 26 | 15 | 29.7 | 25.8 | 51% | 27 | 75.69 | 0.0 | ||||
| 30 | 19:35 | NW 7 | 16.09 | Fair | CLR | 27 | 15 | 48% | 27 | 75.69 | 0.0 | ||||||
| 30 | 19:15 | NW 15 | 16.09 | Fair | CLR | 27 | 14 | 45% | 27 | 75.67 | 0.0 | ||||||
| 30 | 18:55 | NW 11 | 16.09 | Fair | CLR | 27 | 14 | 45% | 27 | 75.64 | 0.0 | ||||||
| 30 | 18:35 | NW 15 | 16.09 | Fair | CLR | 28 | 14 | 42% | 28 | 75.64 | 0.0 | ||||||
| 30 | 18:15 | NW 19 | 16.09 | Fair | CLR | 28 | 14 | 42% | 28 | 75.64 | 0.0 | ||||||
| 30 | 17:56 | NW 17 | 16.09 | A Few Clouds | FEW070 | 28 | 15 | 45% | 28 | 75.64 | 0.0 | ||||||
| 30 | 17:35 | NW 11 | 16.09 | Fair | CLR | 28 | 15 | 45% | 28 | 75.64 | 0.0 | ||||||
| 30 | 17:15 | NW 13 G 26 | 16.09 | Fair | CLR | 29 | 15 | 43% | 29 | 75.64 | 0.0 | ||||||
| 30 | 16:55 | W 17 G 30 | 16.09 | Fair | CLR | 29 | 15 | 43% | 29 | 75.62 | 0.0 | ||||||
| 30 | 16:35 | NW 13 | 16.09 | Fair | CLR | 29 | 15 | 43% | 29 | 75.62 | 0.0 | ||||||
| 30 | 16:15 | NW 17 | 16.09 | Fair | CLR | 29 | 15 | 43% | 29 | 75.62 | 0.0 | ||||||
| 30 | 15:55 | NW 15 G 26 | 16.09 | Fair | CLR | 29 | 15 | 43% | 29 | 75.62 | 0.0 | ||||||
| 30 | 15:35 | Vrbl 11 | 16.09 | A Few Clouds | FEW055 | 29 | 15 | 43% | 29 | 75.64 | 0.0 | ||||||
| 30 | 15:15 | W 17 G 30 | 16.09 | Partly Cloudy | SCT055 | 29 | 15 | 43% | 29 | 75.67 | 0.0 | ||||||
| 30 | 14:55 | NW 17 G 35 | 16.09 | Partly Cloudy | SCT060 SCT075 | 29 | 15 | 43% | 29 | 75.67 | 0.0 | ||||||
| 30 | 14:35 | W 19 | 16.09 | Partly Cloudy | SCT050 SCT075 | 29 | 15 | 43% | 29 | 75.67 | 0.0 | ||||||
| 30 | 14:15 | W 26 G 33 | 16.09 | Mostly Cloudy | SCT049 BKN060 | 29 | 16 | 45% | 29 | 75.67 | 0.0 | ||||||
| 30 | 13:55 | NW 22 G 37 | 16.09 | Mostly Cloudy | FEW049 BKN060 BKN070 | 29 | 16 | 29.2 | 21.2 | 45% | 29 | 75.69 | 0.0 | ||||
| 30 | 13:35 | W 15 G 31 | 16.09 | A Few Clouds | FEW045 | 28 | 17 | 51% | 29 | 75.69 | 0.0 | ||||||
| 30 | 13:15 | W 20 G 33 | 16.09 | A Few Clouds | FEW043 | 28 | 16 | 48% | 28 | 75.72 | 0.0 | ||||||
| 30 | 12:55 | W 13 | 16.09 | Partly Cloudy | SCT039 SCT046 | 28 | 17 | 51% | 29 | 75.72 | 0.0 | ||||||
| 30 | 12:35 | Vrbl 9 | 16.09 | A Few Clouds | FEW039 | 27 | 17 | 54% | 28 | 75.72 | 0.0 | ||||||
| 30 | 12:15 | W 11 | 16.09 | Fair | CLR | 26 | 17 | 58% | 27 | 75.72 | 0.0 | ||||||
| 30 | 11:55 | NW 13 | 16.09 | Fair | CLR | 26 | 17 | 58% | 27 | 75.74 | 0.0 | ||||||
| 30 | 11:35 | NW 13 | 16.09 | Fair | CLR | 26 | 18 | 61% | 27 | 75.74 | 0.0 | ||||||
| 30 | 11:15 | Vrbl 6 | 16.09 | Fair | CLR | 25 | 20 | 74% | 26 | 75.77 | 0.0 | ||||||
| 30 | 10:55 | NW 13 | 16.09 | A Few Clouds | FEW020 | 24 | 20 | 78% | 24 | 75.77 | 0.0 | ||||||
| 30 | 10:35 | NW 13 | 16.09 | Mostly Cloudy | BKN018 BKN085 | 24 | 20 | 78% | 24 | 75.79 | 0.0 | ||||||
| 30 | 10:15 | NW 7 | 16.09 | Mostly Cloudy | BKN018 BKN085 | 24 | 21 | 83% | 24 | 75.79 | 0.0 | ||||||
| 30 | 09:55 | Vrbl 7 | 16.09 | Mostly Cloudy | SCT015 SCT020 BKN100 | 23 | 21 | 89% | 75.77 | 0.0 | |||||||
| 30 | 09:35 | W 9 | 16.09 | Overcast | SCT019 SCT075 OVC110 | 23 | 21 | 89% | 75.79 | 0.0 | |||||||
| 30 | 09:15 | Vrbl 4 | 16.09 | Overcast | FEW022 BKN075 OVC110 | 23 | 21 | 89% | 75.79 | 0.0 | |||||||
| 30 | 08:55 | W 7 | 16.09 | Overcast | BKN065 BKN090 OVC120 | 22 | 21 | 94% | 75.82 | 0.0 | |||||||
| 30 | 08:35 | W 7 | 16.09 | Overcast | FEW065 SCT080 OVC100 | 22 | 21 | 94% | 75.79 | 0.0 | |||||||
| 30 | 08:15 | Vrbl 6 | 16.09 | Overcast | FEW065 BKN080 OVC100 | 22 | 21 | 94% | 75.79 | 0.0 | |||||||
| 30 | 07:55 | Vrbl 6 | 16.09 | Overcast | BKN080 OVC090 | 21 | 21 | 24.4 | 19.8 | 100% | 75.77 | 0.0 | |||||
| 30 | 07:35 | Vrbl 6 | 16.09 | Overcast | OVC090 | 22 | 21 | 94% | 75.72 | 0.0 | |||||||
| 30 | 07:15 | Vrbl 4 | 16.09 | Overcast | SCT070 BKN090 OVC110 | 22 | 21 | 94% | 75.72 | 0.0 | |||||||
| 30 | 06:55 | W 6 | 16.09 | Overcast | BKN070 BKN080 OVC100 | 22 | 21 | 94% | 75.69 | 0.0 | |||||||
| 30 | 06:35 | Vrbl 6 | 16.09 | Overcast | FEW060 BKN070 OVC085 | 22 | 21 | 94% | 75.69 | 0.0 | |||||||
| 30 | 06:15 | SW 7 | 16.09 | Overcast | BKN070 OVC090 | 21 | 20 | 94% | 75.64 | 0.0 | |||||||
| 30 | 05:55 | W 7 | 16.09 | Overcast | SCT065 BKN080 OVC100 | 21 | 21 | 100% | 75.62 | 0.0 | |||||||
| 30 | 05:35 | Calm | 16.09 | Light Rain | BKN065 BKN075 OVC100 | 21 | 21 | 100% | 75.59 | 0.0 | |||||||
| 30 | 05:15 | W 4 | 16.09 | Light Rain | BKN070 BKN075 OVC090 | 22 | 20 | 88% | 75.64 | 0.0 | |||||||
| 30 | 04:55 | W 9 | 14.48 | Light Rain | FEW035 BKN070 OVC100 | 24 | 20 | 78% | 24 | 75.67 | 0.0 | ||||||
| 30 | 04:35 | W 15 G 26 | 16.09 | Overcast | SCT050 BKN070 OVC100 | 24 | 19 | 74% | 25 | 75.67 | 0.0 | ||||||
| 30 | 04:15 | W 15 | 16.09 | Mostly Cloudy | SCT055 SCT070 BKN120 | 24 | 19 | 74% | 25 | 75.69 | 0.0 | ||||||
| 30 | 03:55 | Vrbl 7 | 16.09 | A Few Clouds | FEW055 | 22 | 19 | 83% | 75.67 | 0.0 | |||||||
| 30 | 03:35 | W 6 | 16.09 | Fair | CLR | 21 | 19 | 88% | 75.67 | 0.0 | |||||||
| 30 | 03:15 | Vrbl 4 | 16.09 | Fair | CLR | 20 | 18 | 88% | 75.67 | 0.0 | |||||||
| 30 | 02:55 | NE 4 | 16.09 | Fair | CLR | 20 | 18 | 88% | 75.62 | 0.0 | |||||||
| 30 | 02:35 | S 2 | 16.09 | Fair | CLR | 21 | 18 | 83% | 75.69 | 0.0 | |||||||
| 30 | 02:15 | Calm | 16.09 | Fair | CLR | 21 | 18 | 83% | 75.72 | 0.0 | |||||||
| 30 | 01:55 | Calm | 16.09 | Fair | CLR | 20 | 18 | 29.3 | 20.1 | 88% | 75.74 | 0.0 | |||||
| 30 | 01:35 | NW 2 | 16.09 | Fair | CLR | 21 | 18 | 83% | 75.77 | 0.0 | |||||||
| 30 | 01:15 | W 2 | 16.09 | Partly Cloudy | SCT075 | 21 | 18 | 83% | 75.79 | 0.0 | |||||||
| 30 | 00:55 | Vrbl 4 | 16.09 | Mostly Cloudy | BKN075 | 20 | 18 | 88% | 75.82 | 0.0 | |||||||
| 30 | 00:35 | SW 2 | 16.09 | Mostly Cloudy | BKN075 BKN085 | 20 | 18 | 88% | 75.82 | 0.0 | |||||||
| 30 | 00:15 | SW 2 | 16.09 | Overcast | BKN065 OVC090 | 20 | 18 | 88% | 75.82 | 0.0 | |||||||
| 29 | 23:55 | Vrbl 2 | 16.09 | Partly Cloudy | SCT065 | 21 | 18 | 83% | 75.82 | 0.0 | |||||||
| 29 | 23:35 | S 2 | 16.09 | Fair | CLR | 21 | 18 | 83% | 75.82 | 0.0 | |||||||
| 29 | 23:15 | NE 2 | 16.09 | Fair | CLR | 22 | 18 | 78% | 75.82 | 0.0 | |||||||
| 29 | 22:55 | Calm | 16.09 | Fair | CLR | 21 | 17 | 78% | 75.84 | 0.0 | |||||||
| 29 | 22:35 | W 4 | 16.09 | Fair | CLR | 22 | 18 | 78% | 75.87 | 0.0 | |||||||
| 29 | 22:15 | W 2 | 16.09 | Fair | CLR | 23 | 17 | 69% | 75.84 | 0.0 | |||||||
| 29 | 21:55 | SW 2 | 16.09 | Fair | CLR | 22 | 17 | 73% | 75.82 | 0.0 | |||||||
| 29 | 21:35 | Calm | 16.09 | Fair | CLR | 23 | 17 | 69% | 75.79 | 0.0 | |||||||
| 29 | 21:15 | Calm | 16.09 | Fair | CLR | 23 | 17 | 69% | 75.77 | 0.0 | |||||||
| 29 | 20:55 | S 2 | 16.09 | Fair | CLR | 24 | 17 | 65% | 25 | 75.74 | 0.0 | ||||||
| 29 | 20:35 | Calm | 16.09 | A Few Clouds | FEW080 | 25 | 17 | 61% | 26 | 75.74 | 0.0 | ||||||
| 29 | 20:15 | W 6 | 16.09 | Partly Cloudy | SCT080 | 28 | 16 | 48% | 28 | 75.77 | 0.0 | ||||||
| 29 | 19:55 | W 7 | 16.09 | Partly Cloudy | SCT080 | 29 | 15 | 32.3 | 28.6 | 43% | 29 | 75.69 | 0.0 | ||||
| 29 | 19:35 | W 13 G 26 | 16.09 | Mostly Cloudy | BKN080 | 30 | 15 | 40% | 30 | 75.72 | 0.0 | ||||||
| 29 | 19:15 | W 22 G 33 | 16.09 | Mostly Cloudy | BKN080 | 31 | 15 | 38% | 31 | 75.72 | 0.0 | ||||||
| 29 | 18:55 | NW 20 | 16.09 | Mostly Cloudy | BKN080 | 32 | 14 | 33% | 31 | 75.69 | 0.0 | ||||||
| Date | Time (edt) | Wind (kph) | Vis. (km) | Weather | Sky Cond. | Air | Dwpt | Max. | Min. | Relative Humidity | Wind Chill (°C) | Heat Index (°C) | altimeter (cm) | sea level (mb) | 1 hr | 3 hr | 6 hr |
| 6 hour | |||||||||||||||||
| Temperature (ºC) | Pressure | Precipitation (cm) | |||||||||||||||